VK6NP-1 Weather Reports


time (UTC)temp
F
wind
direction
speed
knots
gust
knots
rain 1hr
in
rain 24hr
in
rain mn
in
humidity
%
barometer
mb
20260503204608 51 330 0.0 0.0 0.00 0.00 0.00 92 1029.1
20260503204109 51 330 0.0 0.0 0.00 0.00 0.00 92 1029.1
20260503203609 51 330 0.0 0.0 0.00 0.00 0.00 92 1029.0
20260503203104 51 330 0.0 0.0 0.00 0.00 0.00 92 1029.0
20260503202606 51 330 0.0 0.0 0.00 0.00 0.00 92 1028.9
20260503202106 51 330 0.0 0.0 0.00 0.00 0.00 92 1028.8
20260503201600 51 330 0.0 0.0 0.00 0.00 0.00 92 1028.9
20260503201101 51 330 0.0 0.0 0.00 0.00 0.00 92 1028.9
20260503200601 51 330 0.0 0.0 0.00 0.00 0.00 93 1028.8
20260503200057 51 330 0.0 0.0 0.00 0.00 0.00 93 1028.8
20260503195558 51 330 0.0 0.0 0.00 0.00 0.00 93 1028.8
20260503195058 51 330 0.0 0.0 0.00 0.00 0.00 93 1028.8
20260503194555 51 330 0.0 0.0 0.00 0.00 0.00 93 1028.9
20260503194055 51 330 0.0 0.0 0.00 0.00 0.00 93 1028.9
20260503193555 51 330 0.0 0.0 0.00 0.00 0.00 93 1028.8
20260503193051 51 330 0.0 0.0 0.00 0.00 0.00 93 1028.9
20260503192552 50 330 0.0 0.0 0.00 0.00 0.00 92 1028.9
20260503192052 51 330 0.0 0.0 0.00 0.00 0.00 92 1028.8
20260503191549 51 330 0.0 0.0 0.00 0.00 0.00 92 1028.8
20260503191048 51 330 0.0 0.0 0.00 0.00 0.00 92 1028.8
20260503190550 51 330 0.0 0.0 0.00 0.00 0.00 91 1028.8
20260503190045 51 330 0.0 0.0 0.00 0.00 0.00 91 1028.7
20260503185545 51 330 0.0 0.0 0.00 0.00 0.00 91 1028.7
20260503185046 51 330 0.0 0.0 0.00 0.00 0.00 91 1028.8
20260503184541 52 330 0.0 0.0 0.00 0.00 0.00 91 1028.7
20260503184041 52 330 0.0 0.0 0.00 0.00 0.00 91 1028.6
20260503183038 52 330 0.0 0.0 0.00 0.00 0.00 91 1028.5
20260503182539 52 330 0.0 0.0 0.00 0.00 0.00 91 1028.5
20260503182036 52 330 0.0 0.0 0.00 0.00 0.00 91 1028.5
20260503181534 52 330 0.0 0.0 0.00 0.00 0.00 91 1028.5
20260503181034 52 330 0.0 0.0 0.00 0.00 0.00 90 1028.6
20260503180535 52 330 0.0 0.0 0.00 0.00 0.00 90 1028.6
20260503180030 52 330 0.0 0.0 0.00 0.00 0.00 90 1028.6
20260503175532 52 330 0.0 0.0 0.00 0.00 0.00 90 1028.7
20260503175031 52 330 0.0 0.0 0.00 0.00 0.00 90 1028.6
20260503174526 52 330 0.0 0.0 0.00 0.00 0.00 90 1028.6
20260503174027 52 330 0.0 0.0 0.00 0.00 0.00 91 1028.7
20260503173527 52 330 0.0 0.0 0.00 0.00 0.00 90 1028.6
20260503173023 52 330 0.0 0.0 0.00 0.00 0.00 90 1028.6
20260503172523 52 330 0.0 0.0 0.00 0.00 0.00 90 1028.6
20260503172024 52 330 0.0 0.0 0.00 0.00 0.00 90 1028.6
20260503171521 52 330 0.0 0.0 0.00 0.00 0.00 89 1028.6
20260503171019 52 330 0.0 0.0 0.00 0.00 0.00 89 1028.6
20260503170520 53 330 0.0 0.0 0.00 0.00 0.00 88 1028.6
20260503150946 55 330 0.0 0.0 0.00 0.00 0.00 86 1028.2
20260503150447 55 330 0.0 0.0 0.00 0.00 0.00 87 1028.2
20260503130922 58 330 0.0 0.0 0.00 0.00 0.00 90 1027.6
20260503130422 58 330 0.0 0.0 0.00 0.00 0.00 90 1027.5
20260503110357 59 330 0.0 0.0 0.00 0.00 0.00 83 1026.7
20260503090335 67 330 0.0 0.0 0.00 0.00 0.00 61 1025.7
20260503080826 68 330 0.0 0.0 0.00 0.00 0.00 55 1025.4
20260503080327 69 330 0.0 0.0 0.00 0.00 0.00 55 1025.5
20260503072816 69 330 0.0 0.0 0.00 0.00 0.00 55 1025.5
20260503072317 69 330 0.0 0.0 0.00 0.00 0.00 55 1025.5
20260503071818 69 330 0.0 0.0 0.00 0.00 0.00 55 1025.4
20260503071315 69 330 0.0 0.0 0.00 0.00 0.00 56 1025.4
20260503070814 68 330 0.0 0.0 0.00 0.00 0.00 56 1025.4
20260503070316 68 330 0.0 0.0 0.00 0.00 0.00 55 1025.4
20260503060303 68 330 0.0 0.0 0.00 0.00 0.00 59 1025.7
20260503054759 66 330 0.0 0.0 0.00 0.00 0.00 62 1026.0
20260503054256 66 330 0.0 0.0 0.00 0.00 0.00 62 1026.0
20260503053756 65 330 0.0 0.0 0.00 0.00 0.00 62 1025.9
20260503053256 66 330 0.0 0.0 0.00 0.00 0.00 62 1026.0
20260503052752 66 330 0.0 0.0 0.00 0.00 0.00 63 1026.1
20260503052253 65 330 0.0 0.0 0.00 0.00 0.00 63 1026.1
20260503051753 66 330 0.0 0.0 0.00 0.00 0.00 63 1026.2
20260503051249 66 330 0.0 0.0 0.00 0.00 0.00 62 1026.3
20260503050749 66 330 0.0 0.0 0.00 0.00 0.00 62 1026.4
20260503050250 66 330 0.0 0.0 0.00 0.00 0.00 61 1026.4
20260503045746 66 330 0.0 0.0 0.00 0.00 0.00 62 1026.6
20260503045246 66 330 0.0 0.0 0.00 0.00 0.00 63 1026.6
20260503044746 65 330 0.0 0.0 0.00 0.00 0.00 65 1026.7
20260503044242 65 330 0.0 0.0 0.00 0.00 0.00 64 1026.9
20260503043743 66 330 0.0 0.0 0.00 0.00 0.00 64 1027.0
20260503043243 66 330 0.0 0.0 0.00 0.00 0.00 63 1027.0
20260503042740 66 330 0.0 0.0 0.00 0.00 0.00 63 1027.1
20260503042240 65 330 0.0 0.0 0.00 0.00 0.00 65 1027.2
20260503041740 65 330 0.0 0.0 0.00 0.00 0.00 65 1027.3
20260503041237 65 330 0.0 0.0 0.00 0.00 0.00 64 1027.5
20260503040738 65 330 0.0 0.0 0.00 0.00 0.00 64 1027.6
20260503040238 65 330 0.0 0.0 0.00 0.00 0.00 64 1027.7
20260503035735 65 330 0.0 0.0 0.00 0.00 0.00 64 1027.7
20260503035236 65 330 0.0 0.0 0.00 0.00 0.00 63 1027.8
20260503034736 65 330 0.0 0.0 0.00 0.00 0.00 64 1027.9
20260503034232 65 330 0.0 0.0 0.00 0.00 0.00 64 1028.1
20260503033732 65 330 0.0 0.0 0.00 0.00 0.00 66 1028.1
20260503033233 64 330 0.0 0.0 0.00 0.00 0.00 66 1028.1
20260503032729 64 330 0.0 0.0 0.00 0.00 0.00 65 1028.2
20260503032229 64 330 0.0 0.0 0.00 0.00 0.00 66 1028.2
20260503031730 64 330 0.0 0.0 0.00 0.00 0.00 65 1028.3
20260503031227 65 330 0.0 0.0 0.00 0.00 0.00 65 1028.4
20260503030726 65 330 0.0 0.0 0.00 0.00 0.00 66 1028.5
20260503030226 64 330 0.0 0.0 0.00 0.00 0.00 66 1028.6
20260503025724 64 330 0.0 0.0 0.00 0.00 0.00 66 1028.8
20260503025224 64 330 0.0 0.0 0.00 0.00 0.00 68 1028.8
20260503024724 64 330 0.0 0.0 0.00 0.00 0.00 68 1028.8
20260503023723 64 330 0.0 0.0 0.00 0.00 0.00 68 1029.0
20260503023222 64 330 0.0 0.0 0.00 0.00 0.00 69 1029.1
20260503022718 63 330 0.0 0.0 0.00 0.00 0.00 69 1029.2
20260503022218 63 330 0.0 0.0 0.00 0.00 0.00 70 1029.3
20260503021718 63 330 0.0 0.0 0.00 0.00 0.00 70 1029.3
20260503021216 62 330 0.0 0.0 0.00 0.00 0.00 70 1029.3
20260503020717 62 330 0.0 0.0 0.00 0.00 0.00 72 1029.4
20260503020216 62 330 0.0 0.0 0.00 0.00 0.00 71 1029.5
20260503015712 62 330 0.0 0.0 0.00 0.00 0.00 71 1029.5
20260503015214 62 330 0.0 0.0 0.00 0.00 0.00 72 1029.4
20260503014714 61 330 0.0 0.0 0.00 0.00 0.00 72 1029.5
20260503014210 61 330 0.0 0.0 0.00 0.00 0.00 74 1029.5
20260503013710 60 330 0.0 0.0 0.00 0.00 0.00 75 1029.5
20260503013211 60 330 0.0 0.0 0.00 0.00 0.00 75 1029.6
20260503012706 60 330 0.0 0.0 0.00 0.00 0.00 76 1029.6
20260503012207 60 330 0.0 0.0 0.00 0.00 0.00 78 1029.6
20260503011707 59 330 0.0 0.0 0.00 0.00 0.00 79 1029.6
20260503011205 58 330 0.0 0.0 0.00 0.00 0.00 80 1029.7
20260503010704 58 330 0.0 0.0 0.00 0.00 0.00 82 1029.7
20260503010204 57 330 0.0 0.0 0.00 0.00 0.00 85 1029.7
20260503005702 56 330 0.0 0.0 0.00 0.00 0.00 88 1029.8
20260503005202 55 330 0.0 0.0 0.00 0.00 0.00 91 1029.8
20260503004700 55 330 0.0 0.0 0.00 0.00 0.00 91 1029.8
20260503004157 54 330 0.0 0.0 0.00 0.00 0.00 95 1029.8
20260503003657 53 330 0.0 0.0 0.00 0.00 0.00 96 1029.8
20260503003158 52 330 0.0 0.0 0.00 0.00 0.00 96 1029.8
20260503002655 51 330 0.0 0.0 0.00 0.00 0.00 97 1029.8
20260503002155 51 330 0.0 0.0 0.00 0.00 0.00 97 1029.7
20260503001656 50 330 0.0 0.0 0.00 0.00 0.00 97 1029.8
20260503001152 50 330 0.0 0.0 0.00 0.00 0.00 97 1029.7
20260503000653 49 330 0.0 0.0 0.00 0.00 0.00 97 1029.7
20260503000153 49 330 0.0 0.0 0.00 0.00 0.00 97 1029.7
20260502235650 48 330 0.0 0.0 0.00 0.00 0.00 97 1029.6
20260502235150 48 330 0.0 0.0 0.00 0.00 0.00 97 1029.6
20260502234651 47 330 0.0 0.0 0.00 0.00 0.00 97 1029.5
20260502234147 47 330 0.0 0.0 0.00 0.00 0.00 97 1029.6
20260502233645 47 330 0.0 0.0 0.00 0.00 0.00 97 1029.4
20260502233146 47 330 0.0 0.0 0.00 0.00 0.00 97 1029.4
20260502232640 46 330 0.0 0.0 0.00 0.00 0.00 97 1029.2
20260502232140 46 330 0.0 0.0 0.00 0.00 0.00 97 1029.3
20260502231641 46 330 0.0 0.0 0.00 0.00 0.00 97 1029.2
20260502231138 46 330 0.0 0.0 0.00 0.00 0.00 97 1029.2
20260502230638 46 330 0.0 0.0 0.00 0.00 0.00 97 1029.0
20260502230138 46 330 0.0 0.0 0.00 0.00 0.00 97 1028.8
20260502225636 46 330 0.0 0.0 0.00 0.00 0.00 96 1028.8
20260502225136 46 330 0.0 0.0 0.00 0.00 0.00 96 1028.8
20260502224636 47 330 0.0 0.0 0.00 0.00 0.00 96 1028.6
20260502224133 47 330 0.0 0.0 0.00 0.00 0.00 96 1028.6
20260502223633 47 330 0.0 0.0 0.00 0.00 0.00 96 1028.6
20260502223133 47 330 0.0 0.0 0.00 0.00 0.00 96 1028.5
20260502222631 47 330 0.0 0.0 0.00 0.00 0.00 96 1028.5
20260502222131 47 330 0.0 0.0 0.00 0.00 0.00 96 1028.5
20260502221632 47 330 0.0 0.0 0.00 0.00 0.00 96 1028.4
20260502221128 47 330 0.0 0.0 0.00 0.00 0.00 96 1028.4
20260502220628 47 330 0.0 0.0 0.00 0.00 0.00 96 1028.4
20260502220128 47 330 0.0 0.0 0.00 0.00 0.00 96 1028.3
20260502215626 47 330 0.0 0.0 0.00 0.00 0.00 96 1028.2
20260502215126 47 330 0.0 0.0 0.00 0.00 0.00 96 1028.3
20260502214626 47 330 0.0 0.0 0.00 0.00 0.00 96 1028.2
20260502214123 47 330 0.0 0.0 0.00 0.00 0.00 96 1028.2
20260502213623 47 330 0.0 0.0 0.00 0.00 0.00 96 1028.2
20260502213124 47 330 0.0 0.0 0.00 0.00 0.00 96 1028.1
20260502212621 47 330 0.0 0.0 0.00 0.00 0.00 96 1028.1
20260502212121 47 330 0.0 0.0 0.00 0.00 0.00 96 1028.0
20260502211621 47 330 0.0 0.0 0.00 0.00 0.00 96 1028.0
20260502211118 47 330 0.0 0.0 0.00 0.00 0.00 96 1027.9
20260502210618 47 330 0.0 0.0 0.00 0.00 0.00 96 1027.9
20260502210118 47 330 0.0 0.0 0.00 0.00 0.00 96 1027.9
20260502205616 47 330 0.0 0.0 0.00 0.00 0.00 96 1027.7
20260502205116 47 330 0.0 0.0 0.00 0.00 0.00 96 1027.8